Wind_Speed
28 31 31 34 41 37 42 38 39 32 25 31 32 32 28 29 34 24 11 7 5 4 12 10 3 3 5 6 5 7 4 3 4 3 3 3 2 3 1 1 2 4 5 3 3 4 2 1 2 4 4 3 7 4
28 31 31 33 42 43 42 38 36 31 27 33 33 33 28 31 34 22 12 9 9 3 11 16 17 16 9 5 14 6 6 3 4 4 0 2 1 1 1 2 4 2 5 5 4 4 1 2 4 3 3 3 5 4
30 31 33 35 43 46 47 42 36 30 29 35 35 33 30 32 31 22 15 12 13 17 10 7 12 13 11 7 10 6 4 5 5 4 5 2 3 2 2 1 1 4 2 4 3 1 3 6 6 3 1 1 1 2
30 37 31 33 34 46 44 45 36 30 33 35 36 32 32 32 29 19 16 17 10 8 5 4 6 8 11 10 5 6 15 14 11 5 4 2 3 2 2 2 3 2 3 4 2 2 3 2 3 2 2 4 3 4
32 30 34 38 38 49 47 43 35 32 37 36 35 32 32 35 25 19 14 14 12 2 5 7 8 8 5 8 13 14 14 14 6 4 4 1 2 2 3 2 2 1 4 3 5 12 5 7 7 5 6 7 4 1
23 32 39 42 41 41 43 39 34 37 38 39 33 34 33 35 26 21 8 11 9 13 7 2 5 4 4 4 7 9 9 8 6 4 3 3 2 1 3 2 3 5 7 1 3 11 6 11 12 8 10 7 5 4
25 31 38 47 44 42 39 35 38 41 41 35 34 35 37 32 28 14 6 14 15 10 5 4 2 5 7 8 10 9 6 6 4 4 3 2 2 2 3 2 2 4 4 2 11 17 14 15 8 10 7 8 7 8
27 34 44 46 51 43 37 40 43 45 39 36 35 37 37 29 21 12 11 21 16 9 5 3 1 4 6 3 3 4 3 4 5 3 2 2 1 2 1 4 5 4 7 20 17 4 6 11 15 13 9 9 10 11
33 33 44 50 43 41 39 42 49 44 36 38 35 38 30 21 16 16 18 14 11 4 6 4 4 3 7 4 4 3 3 3 1 2 1 2 1 2 1 3 6 7 12 17 7 6 13 14 16 13 10 11 8 11
31 39 45 44 44 44 42 47 48 45 42 40 42 17 9 15 22 25 11 4 4 2 3 4 6 2 9 4 2 2 2 1 1 3 2 2 3 2 5 6 5 9 7 16 16 16 15 17 16 14 11 8 7 10
29 45 45 44 46 44 43 48 47 46 45 37 8 5 32 33 14 5 4 3 2 1 5 5 6 5 6 4 3 1 2 1 2 3 3 1 3 1 4 1 11 11 12 15 4 6 10 12 15 13 10 11 10 7
44 44 46 44 42 42 40 43 53 48 30 23 22 28 26 9 4 5 2 1 2 5 9 11 11 11 6 4 4 2 2 2 2 1 3 2 2 6 6 9 12 16 16 8 9 13 14 14 11 7 9 12 8 6
45 39 43 41 41 43 44 45 43 30 34 45 17 6 4 3 6 6 8 4 2 9 10 14 8 7 5 3 5 3 3 4 1 2 3 3 8 9 9 10 12 13 12 10 12 14 16 14 10 7 9 9 6 8
41 37 39 39 41 41 46 44 37 42 30 7 6 4 4 4 5 5 5 6 8 13 26 28 10 5 4 4 3 4 2 3 2 1 4 3 14 13 10 8 7 10 12 14 16 16 15 10 9 9 8 9 9 12
34 36 35 38 40 43 44 41 41 33 8 4 6 4 4 4 4 8 8 10 15 30 33 16 8 5 3 4 1 3 3 3 5 4 3 13 17 14 10 8 7 13 16 16 16 14 10 8 9 11 12 13 14 14
35 34 34 41 39 44 39 39 30 18 4 4 4 5 7 7 2 11 13 13 26 36 29 9 4 3 2 4 3 5 6 5 3 3 9 20 17 13 9 5 11 17 16 15 12 10 10 11 12 13 15 15 14 12
35 29 39 41 38 35 36 31 17 5 3 3 3 8 5 10 12 10 17 18 34 27 4 5 4 4 5 3 3 4 4 3 6 11 18 17 14 11 9 9 16 17 14 12 10 13 14 14 14 15 16 16 13 11
29 36 39 32 39 25 35 15 6 4 4 5 6 6 11 13 15 15 15 30 27 21 10 3 6 3 5 6 3 3 4 10 14 18 17 13 12 12 11 13 17 14 12 11 13 15 15 15 15 15 14 13 12 10
31 33 35 30 28 16 6 6 3 5 6 8 9 12 13 13 14 18 26 29 27 12 9 3 3 3 3 4 5 13 19 19 22 17 13 11 10 10 12 16 16 14 13 12 15 14 14 13 12 12 12 11 9 8
33 30 24 29 24 7 5 4 5 6 5 4 7 9 10 11 16 20 22 20 18 6 4 2 3 2 3 3 7 14 19 19 19 19 16 14 12 12 12 15 15 13 14 16 16 16 17 16 14 12 11 10 9 8
30 24 22 18 14 10 6 4 6 5 6 7 9 8 8 13 10 14 13 15 11 2 3 3 7 9 8 8 12 14 14 16 15 6 11 17 17 15 16 17 16 15 14 20 19 17 14 14 15 14 12 12 10 7
31 26 23 12 7 6 7 7 7 6 5 6 5 6 7 4 4 5 7 2 1 4 6 9 9 10 10 10 11 10 9 12 13 10 8 13 19 18 21 20 20 17 18 19 18 16 16 17 15 13 11 9 8 6
22 20 7 7 7 6 4 5 4 3 3 3 4 4 3 2 2 4 2 3 4 10 11 11 9 11 12 11 11 11 11 12 13 13 11 14 16 14 18 22 21 20 22 20 17 17 17 16 15 13 10 7 10 10
15 5 3 3 4 4 4 2 4 5 4 3 3 3 2 3 4 2 1 4 10 13 16 15 16 16 16 16 15 14 13 12 13 13 13 16 20 17 18 20 20 21 21 20 20 19 17 16 14 12 10 11 12 11
3 3 3 2 3 4 4 3 2 4 3 2 3 1 2 4 2 2 3 5 14 18 19 21 22 22 22 20 18 17 16 15 17 14 14 18 19 18 20 22 21 21 22 23 23 20 18 16 16 15 14 13 14 12
5 2 2 4 1 3 4 4 3 4 4 2 3 6 4 3 2 5 4 6 13 14 20 23 24 25 25 24 21 21 20 18 18 17 16 18 21 24 28 28 26 26 24 23 22 22 19 18 17 17 15 14 13 11
3 2 2 3 3 6 5 6 6 5 3 5 4 4 3 3 5 5 4 6 5 5 9 13 18 21 23 21 17 16 17 18 19 18 14 18 21 22 25 26 27 24 24 23 21 18 15 18 18 18 18 16 14 12
2 3 5 7 3 3 5 3 4 5 4 8 14 4 8 8 5 4 5 6 8 8 8 9 11 14 14 15 15 17 20 20 19 17 16 20 19 20 22 23 21 21 22 23 21 18 17 19 21 20 19 18 15 13
4 7 7 2 3 3 2 4 6 4 8 13 7 4 5 5 4 5 6 7 8 9 10 11 11 14 14 15 18 18 20 23 23 23 24 26 25 24 22 21 20 22 21 20 19 18 19 20 19 18 19 18 16 14
3 5 4 3 3 0 2 3 4 6 7 8 4 2 3 5 5 8 9 10 12 11 9 12 15 20 21 21 22 21 21 20 22 24 27 28 27 25 25 23 22 22 23 22 22 22 21 20 20 20 19 18 17 16
5 3 3 3 3 3 3 3 3 2 3 4 8 8 6 5 7 9 11 12 11 14 15 18 20 21 23 26 26 25 23 21 19 18 14 15 20 20 21 21 20 20 22 26 27 26 24 22 21 21 20 19 18 18
3 1 4 2 0 3 6 4 3 1 2 4 4 6 6 5 5 8 16 17 17 19 21 20 24 25 23 23 21 20 19 20 20 17 13 13 16 18 19 19 18 21 25 27 27 26 24 23 22 21 21 20 19 18
3 4 4 4 3 4 4 4 3 1 3 2 4 7 10 5 7 8 10 16 21 22 25 22 19 19 20 21 21 20 19 18 16 16 16 15 14 17 18 18 18 21 25 25 25 25 25 24 21 21 21 20 20 19
Wind_Direction
218 215 212 213 204 196 203 209 207 210 212 201 194 188 189 192 185 181 165 162 161 104 58 70 122 145 140 143 131 152 81 4 54 74 126 204 168 236 32 271 184 148 134 171 99 88 274 353 342 104 211 207 205 183
215 211 214 214 208 198 198 203 202 206 209 198 191 185 190 190 182 177 177 159 138 127 114 88 78 70 78 142 137 130 128 122 145 90 125 113 133 46 123 186 358 67 175 163 156 206 262 45 122 134 178 250 220 212
215 214 208 211 195 198 200 199 198 202 203 193 187 185 193 182 178 172 173 157 132 124 106 115 68 73 77 86 159 121 144 139 150 130 138 123 101 123 125 250 118 346 102 97 103 318 65 98 111 107 329 305 190 238
221 210 212 211 197 193 196 192 196 201 194 187 184 185 184 176 169 171 170 164 166 129 108 72 69 76 58 56 127 160 154 134 129 120 91 107 119 164 204 204 153 209 43 118 76 33 127 156 142 108 94 105 118 140
215 210 199 198 189 187 186 189 193 194 185 179 177 179 176 168 163 157 162 172 170 151 127 128 92 55 57 83 102 115 130 126 102 78 62 115 134 101 356 45 322 36 155 136 211 189 153 176 168 137 126 113 96 138
213 197 191 185 186 182 180 186 189 182 174 170 174 174 171 161 147 143 156 180 154 125 103 72 84 64 95 107 127 127 112 96 89 87 91 93 82 123 100 202 290 116 16 273 169 170 195 152 153 150 141 123 111 123
186 177 179 183 186 177 179 180 176 170 167 170 171 169 166 158 155 172 160 161 156 137 101 88 69 127 124 115 99 91 104 90 86 98 81 83 97 56 92 171 159 329 345 255 167 146 136 156 158 155 151 129 128 132
167 168 164 172 172 171 174 171 168 164 166 161 162 160 160 165 164 176 150 157 159 154 105 104 297 137 161 126 81 64 77 77 54 82 100 81 100 44 291 254 323 308 179 147 143 117 165 169 157 155 151 141 141 141
160 160 165 163 163 168 166 165 160 167 159 156 155 154 145 156 158 147 148 149 160 155 119 112 135 205 156 108 98 76 67 52 31 64 125 120 342 223 216 328 352 192 160 172 160 142 149 155 153 154 160 159 153 149
151 164 158 156 160 160 161 165 161 161 158 153 146 140 122 133 144 148 140 150 155 94 115 103 132 146 158 126 83 107 58 141 96 255 148 96 248 239 301 287 271 177 201 178 147 145 156 157 161 161 165 163 162 160
152 153 152 159 160 163 167 168 162 156 152 142 117 117 136 135 136 114 113 129 161 63 170 132 147 129 147 108 154 138 165 154 109 256 140 247 269 276 349 289 180 182 176 164 157 166 169 170 166 164 170 168 163 162
149 149 157 159 160 161 159 167 156 149 155 155 137 127 125 128 108 85 77 153 191 202 171 144 141 127 121 136 106 29 119 73 203 23 84 260 239 138 112 117 143 156 159 154 145 156 158 157 151 156 162 163 161 167
147 153 157 156 160 158 158 161 151 150 133 126 121 105 171 66 67 160 178 198 214 170 162 151 123 129 116 95 85 79 102 214 82 61 224 220 160 158 136 128 137 151 158 158 154 154 153 152 151 152 160 167 174 164
147 154 155 155 157 157 155 163 141 142 133 103 138 117 139 178 214 188 173 174 168 160 153 144 110 115 115 85 140 112 195 120 68 252 235 204 170 160 150 142 151 163 164 160 155 154 157 158 162 163 171 160 156 153
150 152 150 156 156 157 161 156 144 149 107 106 128 149 188 188 163 171 148 136 143 154 147 116 80 95 70 107 200 117 134 230 205 225 218 171 170 166 158 157 170 167 160 158 158 163 167 168 166 158 151 149 150 151
148 152 155 157 151 161 161 160 152 137 78 115 107 105 138 113 112 152 158 142 153 151 145 124 103 93 133 136 140 199 160 218 237 201 162 162 166 166 169 176 175 167 164 164 167 175 172 161 158 156 150 147 147 147
151 147 166 164 151 136 139 131 115 74 69 68 76 131 155 138 141 151 155 152 159 149 137 115 112 178 118 110 186 178 201 220 170 150 158 167 169 183 186 187 168 167 168 170 175 166 160 157 156 156 154 151 154 157
139 145 153 156 173 132 135 111 107 110 88 82 103 109 105 119 140 142 152 160 163 161 134 157 131 142 156 168 218 207 150 126 140 149 158 172 182 173 176 175 171 171 171 168 166 163 161 159 158 157 159 161 162 166
138 147 160 144 148 123 70 76 83 99 74 84 91 100 101 106 133 148 158 167 168 153 143 127 87 160 195 202 187 167 162 157 154 154 158 162 166 170 171 174 173 173 174 174 170 164 160 158 161 164 167 165 168 166
145 125 137 156 149 114 90 57 74 74 73 72 94 85 85 96 107 135 151 159 170 145 95 87 162 170 171 161 167 176 167 164 159 153 158 163 172 177 180 178 178 179 179 171 169 169 168 166 168 173 172 166 160 157
136 142 162 146 108 69 85 67 76 79 89 85 96 75 74 90 98 121 116 144 176 129 114 150 140 134 128 132 136 152 162 166 167 157 177 177 177 185 188 188 192 190 197 180 177 174 179 179 171 166 163 162 165 171
131 131 119 100 65 73 63 53 81 72 70 103 75 65 76 61 65 76 125 69 276 160 164 164 167 167 159 151 153 156 166 176 188 202 194 196 187 188 194 193 192 199 189 184 185 181 176 177 176 173 173 168 176 182
142 146 83 41 62 58 90 62 85 87 104 101 78 72 64 76 87 122 105 179 212 210 208 203 204 194 190 193 194 199 198 202 209 213 217 208 203 200 204 200 205 201 184 187 189 186 182 180 179 180 184 192 182 161
120 100 91 72 76 108 136 85 84 85 90 78 75 96 99 124 115 73 260 240 219 212 212 207 208 203 205 212 218 217 218 216 212 215 216 206 196 201 207 206 196 190 192 187 185 185 185 181 181 193 199 180 161 157
131 50 104 58 111 111 77 60 73 74 112 118 90 61 152 123 131 212 239 248 214 209 209 209 213 219 226 229 226 223 222 224 216 208 203 202 208 202 193 187 190 192 195 190 185 188 186 189 190 193 187 175 165 160
70 95 96 150 170 102 154 110 148 172 129 105 106 133 133 124 159 233 228 231 222 217 214 215 216 219 224 231 230 223 220 206 205 208 212 208 204 199 187 187 189 190 194 200 197 192 194 193 192 182 170 160 157 155
104 219 138 138 143 133 85 82 116 108 130 153 162 147 123 184 239 246 232 231 232 229 229 227 231 233 236 234 225 215 208 205 210 215 215 203 200 205 198 192 190 192 189 192 201 208 212 201 189 177 172 170 174 177
74 141 141 161 149 140 129 113 132 182 181 163 144 167 176 198 228 191 195 216 217 228 232 232 231 227 225 216 196 194 203 205 202 204 208 202 206 205 199 199 199 196 195 198 207 216 223 205 186 180 179 179 179 182
158 151 157 107 130 129 121 160 186 167 158 175 165 195 219 219 200 215 220 214 217 226 238 229 204 184 183 191 200 203 203 200 196 192 192 190 188 192 195 198 198 199 204 207 209 203 195 185 184 181 183 185 180 184
152 167 113 103 94 18 69 100 133 159 178 189 206 230 250 262 258 249 238 237 231 231 229 208 191 188 196 195 192 194 198 197 196 193 190 192 192 190 189 193 200 204 206 207 203 181 182 184 183 186 189 184 184 185
149 152 100 82 112 129 130 147 154 174 200 224 235 247 259 280 273 264 248 236 227 205 205 199 201 205 202 195 190 189 191 189 189 192 206 212 201 199 199 199 203 208 196 181 180 182 183 184 186 185 183 180 183 184
151 112 108 73 79 147 142 153 160 217 260 241 248 240 251 250 259 259 247 227 216 206 209 207 204 204 202 204 204 198 188 178 177 178 182 190 196 201 202 200 199 187 181 181 183 186 188 188 186 186 183 184 186 189
120 116 104 113 139 175 156 146 178 253 244 257 250 239 239 240 253 248 245 226 225 218 207 205 210 208 200 197 196 192 190 188 188 192 194 199 207 206 202 202 202 195 190 190 190 189 187 188 190 189 190 190 194 196
Height
1365 1370 1376 1383 1391 1398 1406 1413 1422 1429 1435 1441 1448 1454 1461 1467 1473 1479 1486 1487 1488 1490 1492 1491 1490 1492 1492 1493 1498 1503 1506 1507 1510 1518 1523 1528 1526 1520 1518 1514 1515 1522 1535 1539 1543 1547 1546 1526 1527 1532 1532 1529 1530 1531
1359 1365 1370 1376 1385 1392 1401 1409 1418 1425 1432 1438 1445 1452 1459 1465 1472 1480 1484 1486 1488 1491 1494 1493 1493 1493 1494 1494 1496 1499 1504 1506 1508 1515 1519 1520 1522 1522 1523 1525 1516 1526 1523 1530 1533 1535 1527 1527 1527 1528 1529 1530 1530 1531
1353 1358 1365 1371 1377 1386 1397 1406 1415 1422 1429 1436 1443 1451 1457 1464 1471 1478 1482 1485 1488 1490 1494 1495 1495 1496 1496 1495 1495 1498 1503 1505 1507 1508 1512 1517 1520 1522 1527 1524 1518 1517 1517 1524 1528 1531 1530 1529 1530 1530 1531 1531 1531 1532
1347 1352 1357 1364 1372 1381 1392 1403 1412 1419 1426 1434 1442 1449 1456 1464 1471 1477 1480 1484 1486 1488 1493 1499 1497 1498 1498 1498 1497 1497 1499 1503 1506 1508 1510 1518 1523 1520 1523 1521 1520 1518 1517 1525 1531 1530 1530 1530 1531 1531 1531 1532 1532 1532
1341 1345 1351 1360 1368 1378 1390 1400 1409 1417 1424 1433 1441 1448 1456 1464 1471 1477 1481 1483 1485 1488 1493 1498 1499 1501 1500 1501 1500 1501 1503 1504 1506 1509 1512 1519 1518 1520 1521 1521 1521 1517 1519 1525 1529 1522 1525 1528 1530 1532 1532 1533 1534 1534
1335 1340 1349 1355 1366 1377 1388 1399 1407 1415 1423 1433 1441 1449 1457 1465 1471 1476 1482 1484 1485 1486 1490 1500 1502 1503 1503 1503 1504 1505 1505 1506 1508 1511 1514 1516 1518 1520 1529 1527 1519 1519 1519 1518 1519 1520 1525 1527 1530 1532 1533 1534 1535 1536
1329 1334 1342 1354 1366 1378 1388 1397 1405 1415 1424 1433 1441 1449 1458 1465 1470 1475 1478 1480 1484 1487 1490 1501 1503 1505 1505 1505 1506 1507 1507 1508 1511 1513 1515 1517 1518 1518 1525 1532 1518 1519 1519 1518 1519 1522 1527 1529 1530 1533 1534 1535 1536 1538
1328 1335 1343 1355 1366 1378 1388 1396 1405 1416 1425 1433 1442 1451 1459 1466 1472 1477 1478 1481 1485 1489 1492 1500 1505 1506 1507 1507 1508 1509 1510 1511 1513 1515 1517 1518 1519 1520 1526 1518 1518 1517 1517 1519 1521 1522 1524 1527 1530 1533 1535 1536 1538 1539
1330 1338 1346 1357 1369 1378 1387 1396 1408 1418 1425 1436 1445 1453 1461 1469 1473 1475 1481 1484 1487 1491 1491 1496 1504 1509 1506 1508 1510 1511 1512 1516 1517 1516 1518 1519 1523 1525 1518 1518 1517 1516 1517 1519 1521 1523 1524 1527 1530 1533 1536 1538 1539 1541
1332 1341 1351 1361 1370 1380 1389 1399 1409 1418 1427 1438 1445 1453 1461 1465 1471 1477 1485 1487 1489 1489 1491 1494 1497 1502 1505 1506 1511 1513 1514 1518 1522 1519 1518 1521 1520 1516 1516 1516 1516 1517 1518 1519 1521 1525 1527 1530 1532 1534 1537 1539 1541 1542
1336 1344 1354 1365 1374 1382 1391 1400 1409 1420 1424 1434 1442 1451 1458 1467 1473 1478 1484 1487 1489 1491 1490 1492 1495 1498 1504 1507 1511 1513 1516 1518 1522 1520 1521 1522 1520 1514 1513 1512 1514 1516 1518 1521 1523 1525 1527 1529 1532 1535 1537 1540 1542 1544
1342 1352 1361 1369 1377 1384 1393 1401 1409 1418 1427 1434 1439 1450 1460 1469 1473 1478 1487 1488 1487 1486 1486 1488 1493 1498 1503 1506 1508 1514 1516 1519 1519 1518 1523 1522 1514 1513 1513 1513 1514 1517 1520 1522 1524 1526 1529 1532 1535 1536 1538 1540 1543 1545
1348 1357 1366 1373 1382 1390 1397 1403 1414 1421 1428 1435 1446 1457 1460 1466 1477 1479 1481 1481 1484 1478 1482 1485 1492 1497 1503 1506 1510 1514 1518 1522 1519 1523 1517 1513 1512 1513 1514 1515 1517 1519 1521 1524 1525 1528 1530 1533 1535 1537 1539 1541 1544 1545
1356 1364 1372 1380 1387 1395 1402 1411 1417 1425 1431 1439 1447 1454 1458 1467 1467 1465 1465 1467 1467 1470 1476 1483 1488 1493 1501 1506 1510 1513 1517 1517 1524 1526 1514 1509 1510 1513 1515 1516 1518 1520 1522 1524 1527 1529 1532 1533 1535 1538 1540 1542 1544 1547
1363 1372 1379 1387 1395 1401 1409 1415 1420 1428 1433 1439 1443 1456 1456 1454 1456 1457 1461 1462 1465 1470 1476 1483 1490 1495 1502 1507 1509 1512 1515 1518 1514 1509 1506 1505 1509 1512 1514 1517 1519 1521 1523 1526 1528 1531 1532 1534 1536 1538 1541 1543 1546 1548
1371 1378 1385 1393 1399 1408 1414 1420 1426 1430 1435 1440 1444 1450 1452 1454 1457 1458 1459 1462 1465 1471 1479 1484 1491 1498 1501 1503 1506 1508 1511 1507 1503 1501 1501 1505 1509 1513 1515 1517 1519 1521 1524 1527 1530 1532 1533 1535 1537 1539 1542 1545 1548 1550
1375 1380 1388 1396 1402 1405 1413 1420 1430 1438 1439 1440 1444 1445 1449 1450 1453 1457 1459 1462 1469 1472 1477 1483 1490 1494 1498 1502 1503 1502 1503 1498 1497 1499 1502 1507 1509 1513 1515 1517 1519 1522 1525 1528 1530 1532 1534 1536 1539 1541 1544 1546 1549 1551
1382 1386 1396 1400 1405 1414 1422 1429 1435 1440 1442 1444 1446 1449 1450 1451 1455 1459 1462 1466 1471 1473 1478 1483 1485 1491 1496 1497 1499 1494 1495 1497 1499 1502 1505 1508 1510 1513 1516 1518 1520 1524 1526 1529 1531 1533 1536 1538 1541 1543 1546 1547 1549 1551
1386 1393 1400 1406 1408 1412 1420 1432 1436 1439 1443 1445 1448 1450 1452 1455 1458 1461 1465 1470 1474 1477 1480 1482 1485 1490 1489 1488 1488 1490 1494 1495 1498 1503 1507 1509 1512 1514 1516 1519 1522 1525 1527 1530 1533 1535 1538 1541 1543 1545 1547 1548 1550 1552
1396 1401 1407 1412 1418 1420 1429 1435 1436 1439 1446 1450 1452 1453 1455 1459 1462 1465 1468 1472 1476 1478 1480 1483 1485 1486 1486 1487 1488 1490 1493 1497 1499 1503 1507 1510 1513 1515 1518 1520 1523 1525 1528 1531 1534 1536 1538 1541 1544 1546 1548 1549 1551 1552
1405 1409 1414 1418 1420 1424 1433 1437 1441 1446 1450 1453 1454 1455 1460 1463 1465 1468 1472 1475 1479 1478 1481 1482 1484 1487 1488 1489 1490 1493 1495 1498 1500 1503 1505 1507 1512 1515 1518 1521 1524 1526 1528 1531 1534 1537 1540 1542 1544 1546 1548 1550 1551 1553
1407 1414 1419 1423 1427 1431 1437 1440 1443 1448 1453 1456 1458 1460 1464 1468 1470 1473 1475 1477 1477 1478 1480 1481 1484 1487 1490 1491 1493 1496 1498 1500 1502 1503 1505 1508 1510 1513 1516 1519 1522 1525 1528 1531 1534 1537 1540 1543 1545 1547 1549 1550 1552 1553
1417 1423 1428 1430 1432 1438 1447 1446 1449 1453 1457 1460 1462 1466 1469 1471 1472 1474 1475 1476 1476 1476 1478 1481 1484 1487 1489 1491 1493 1495 1497 1498 1499 1502 1504 1506 1510 1513 1515 1518 1521 1524 1527 1531 1535 1537 1540 1543 1545 1547 1549 1550 1551 1553
1428 1431 1435 1437 1440 1445 1448 1449 1450 1453 1458 1461 1465 1470 1471 1473 1474 1475 1477 1474 1472 1472 1475 1478 1481 1483 1486 1488 1490 1492 1494 1496 1498 1499 1501 1504 1507 1510 1513 1516 1520 1524 1528 1531 1534 1537 1540 1543 1545 1547 1549 1550 1552 1554
1430 1436 1438 1440 1441 1443 1447 1450 1453 1455 1460 1463 1468 1471 1472 1473 1475 1476 1474 1467 1465 1467 1470 1473 1476 1478 1481 1483 1486 1488 1491 1493 1494 1496 1499 1502 1505 1508 1511 1515 1519 1523 1527 1530 1533 1536 1539 1542 1544 1547 1548 1550 1552 1554
1431 1436 1437 1438 1439 1441 1446 1453 1455 1457 1458 1463 1466 1469 1471 1473 1477 1474 1464 1459 1460 1462 1464 1467 1469 1472 1475 1477 1480 1483 1485 1489 1492 1494 1496 1499 1502 1505 1508 1512 1515 1520 1524 1529 1532 1535 1538 1540 1543 1545 1548 1551 1553 1556
1437 1437 1437 1438 1440 1442 1445 1448 1451 1453 1460 1463 1463 1467 1469 1475 1475 1459 1457 1457 1459 1460 1462 1464 1466 1468 1470 1473 1477 1479 1483 1486 1489 1493 1495 1498 1501 1505 1508 1511 1514 1519 1523 1527 1531 1535 1537 1539 1542 1545 1548 1551 1554 1556
1435 1437 1439 1441 1441 1442 1445 1447 1450 1453 1452 1453 1458 1465 1465 1464 1457 1454 1454 1455 1456 1458 1459 1461 1462 1464 1467 1470 1474 1477 1480 1483 1487 1490 1494 1497 1500 1504 1507 1511 1515 1519 1523 1526 1530 1532 1535 1538 1541 1544 1547 1550 1553 1555
1438 1439 1441 1441 1441 1441 1442 1444 1446 1447 1448 1450 1452 1454 1452 1451 1451 1451 1452 1453 1454 1455 1457 1458 1460 1463 1466 1469 1472 1474 1477 1480 1483 1486 1489 1493 1496 1501 1505 1509 1514 1517 1521 1524 1527 1531 1533 1537 1540 1543 1546 1549 1552 1554
1435 1436 1437 1439 1440 1441 1442 1443 1445 1446 1447 1448 1449 1449 1449 1448 1449 1449 1450 1451 1452 1453 1455 1457 1459 1462 1464 1466 1469 1472 1475 1478 1482 1485 1487 1490 1494 1500 1503 1507 1510 1514 1518 1521 1524 1528 1532 1535 1538 1541 1544 1547 1549 1552
1434 1435 1436 1437 1439 1441 1442 1443 1444 1445 1446 1447 1448 1449 1449 1448 1446 1446 1447 1448 1450 1452 1454 1455 1458 1460 1462 1464 1466 1470 1474 1477 1482 1486 1490 1494 1497 1499 1502 1505 1509 1511 1514 1518 1522 1526 1529 1532 1535 1538 1541 1544 1547 1550
1436 1436 1436 1440 1441 1442 1443 1444 1445 1446 1447 1448 1448 1448 1448 1447 1446 1443 1441 1442 1444 1447 1449 1452 1454 1456 1460 1464 1467 1471 1475 1478 1481 1485 1489 1492 1495 1499 1502 1504 1507 1509 1513 1517 1520 1524 1527 1530 1533 1536 1539 1542 1545 1548
1438 1439 1440 1441 1442 1443 1444 1445 1446 1447 1447 1446 1446 1445 1445 1446 1443 1438 1434 1436 1438 1440 1444 1448 1452 1455 1459 1463 1467 1471 1475 1479 1483 1486 1488 1491 1494 1497 1500 1503 1505 1508 1511 1514 1518 1522 1525 1528 1531 1534 1537 1539 1542 1544